This is the latest recevied weather packets stored in our database for station/object BARLOW-WX. If no packets are shown the sender has not sent any weather packets the latest 10 day(s).
| Time | Temp. | Humidity | Pressure | Rain* | Wind** | Luminosity | Snow |
|---|---|---|---|---|---|---|---|
| 1777821379 | 12.22° C | 57% | 985.2 hPa | 0 mm | - | - | - |
| 1777819580 | 10.56° C | 58% | 985.1 hPa | 0 mm | - | - | - |
| 1777818701 | 10.56° C | 59% | 985.2 hPa | 0 mm | - | - | - |
| 1777816925 | 10.56° C | 59% | 985.2 hPa | 0 mm | - | - | - |
| 1777815979 | 10° C | 69% | 985.6 hPa | 0 mm | - | - | - |
| 1777815095 | 9.44° C | 69% | 985.6 hPa | 0 mm | - | - | - |
| 1777814180 | 7.78° C | 69% | 985.5 hPa | 0 mm | - | - | - |
| 1777811500 | 6.11° C | 70% | 985.7 hPa | 0 mm | - | - | - |
| 1777807897 | 3.89° C | 73% | 984.8 hPa | 0 mm | - | - | - |
| 1777806981 | 3.33° C | 73% | 984.8 hPa | 0 mm | - | - | - |
| 1777803379 | 2.22° C | 74% | 984.8 hPa | 0 mm | - | - | - |
| 1777802515 | 2.22° C | 74% | 984.8 hPa | 0 mm | - | - | - |
| 1777800699 | 2.78° C | 71% | 985.1 hPa | 0 mm | - | - | - |
| 1777799778 | 2.22° C | 71% | 985 hPa | 0 mm | - | - | - |
| 1777798909 | 2.22° C | 71% | 985 hPa | 0 mm | - | - | - |
| 1777797978 | 2.22° C | 65% | 985.3 hPa | 0 mm | - | - | - |
| 1777797098 | 2.22° C | 68% | 985.5 hPa | 0 mm | - | - | - |
| 1777796178 | 2.22° C | 68% | 985.5 hPa | 0 mm | - | - | - |
| 1777795305 | 2.22° C | 67% | 985 hPa | 0 mm | - | - | - |
| 1777794378 | 2.22° C | 68% | 985.7 hPa | 0 mm | - | - | - |
| 1777793498 | 2.22° C | 68% | 985.7 hPa | 0 mm | - | - | - |
| 1777792578 | 2.22° C | 68% | 985.7 hPa | 0 mm | - | - | - |
| 1777791708 | 2.22° C | 68% | 985.7 hPa | 0 mm | - | - | - |
| 1777790779 | 2.22° C | 69% | 986.6 hPa | 0 mm | - | - | - |
| 1777789895 | 2.22° C | 70% | 986.7 hPa | 0 mm | - | - | - |
* Rain latest hour (hover to see other rain measurements)
** Current wind speed in m/s (hover to see current wind gust speed)